| time (UTC) | temp F | wind direction | speed MPH | gust MPH | rain 1hr in | rain 24hr in | rain mn in | humidity % | barometer mb |
| 20260504050017 | 55 | 0.0 | 2.0 | 0.00 | 0.00 | 0.00 | 46 | 1000.5 | |
| 20260504045016 | 55 | 0.0 | 1.0 | 0.00 | 0.00 | 0.00 | 46 | 1000.8 | |
| 20260504044016 | 55 | 0.0 | 1.0 | 0.00 | 0.00 | 0.00 | 46 | 1000.9 | |
| 20260504043036 | 55 | 0.0 | 0.0 | 0.00 | 0.00 | 0.00 | 47 | 1001.0 | |
| 20260504042016 | 55 | 0.0 | 0.0 | 0.00 | 0.00 | 0.00 | 47 | 1001.1 | |
| 20260504041018 | 55 | 0.0 | 0.0 | 0.00 | 0.00 | 0.00 | 47 | 1001.3 | |
| 20260504040019 | 55 | 0.0 | 0.0 | 0.00 | 0.00 | 0.00 | 48 | 1001.5 | |
| 20260504035017 | 55 | 0.0 | 0.0 | 0.00 | 0.00 | 0.00 | 48 | 1001.8 | |
| 20260504034018 | 56 | 0.0 | 0.0 | 0.00 | 0.00 | 0.00 | 46 | 1001.9 | |
| 20260504033018 | 56 | 0.0 | 0.0 | 0.00 | 0.00 | 0.00 | 44 | 1002.1 | |
| 20260504032018 | 57 | 0.0 | 0.0 | 0.00 | 0.00 | 0.00 | 43 | 1002.3 | |
| 20260504031037 | 58 | 0.0 | 0.0 | 0.00 | 0.00 | 0.00 | 41 | 1002.3 | |
| 20260504030018 | 59 | 0.0 | 0.0 | 0.00 | 0.00 | 0.00 | 39 | 1002.5 | |
| 20260504025017 | 60 | 0.0 | 0.0 | 0.00 | 0.00 | 0.00 | 38 | 1002.5 | |
| 20260504024017 | 60 | 0.0 | 0.0 | 0.00 | 0.00 | 0.00 | 37 | 1002.5 | |
| 20260504023017 | 61 | 0.0 | 0.0 | 0.00 | 0.00 | 0.00 | 35 | 1002.6 | |
| 20260504022037 | 62 | 0.0 | 0.0 | 0.00 | 0.00 | 0.00 | 34 | 1002.6 | |
| 20260504021037 | 63 | 0.0 | 0.0 | 0.00 | 0.00 | 0.00 | 33 | 1002.8 | |
| 20260504020017 | 63 | 0.0 | 1.0 | 0.00 | 0.00 | 0.00 | 33 | 1002.7 | |
| 20260504015018 | 64 | 0.0 | 2.0 | 0.00 | 0.00 | 0.00 | 32 | 1002.7 | |
| 20260504014017 | 64 | 0.0 | 3.0 | 0.00 | 0.00 | 0.00 | 31 | 1002.7 | |
| 20260504013017 | 65 | 0.0 | 1.0 | 0.00 | 0.00 | 0.00 | 30 | 1002.8 | |
| 20260504012017 | 66 | 0.0 | 3.0 | 0.00 | 0.00 | 0.00 | 29 | 1002.9 | |
| 20260504011017 | 67 | 270 | 1.0 | 3.0 | 0.00 | 0.00 | 0.00 | 28 | 1003.0 |
| 20260504010017 | 67 | 270 | 1.0 | 8.0 | 0.00 | 0.00 | 0.00 | 28 | 1002.9 |
| 20260504005017 | 68 | 270 | 1.0 | 4.0 | 0.00 | 0.00 | 0.00 | 27 | 1003.0 |
| 20260504004017 | 68 | 270 | 3.0 | 8.0 | 0.00 | 0.00 | 0.00 | 26 | 1003.0 |
| 20260504003017 | 68 | 270 | 1.0 | 6.0 | 0.00 | 0.00 | 0.00 | 27 | 1003.0 |
| 20260504002017 | 69 | 270 | 1.0 | 4.0 | 0.00 | 0.00 | 0.00 | 26 | 1003.0 |
| 20260504001017 | 69 | 270 | 2.0 | 7.0 | 0.00 | 0.00 | 0.00 | 25 | 1003.0 |
| 20260504000017 | 70 | 270 | 3.0 | 9.0 | 0.00 | 0.00 | 0.00 | 24 | 1003.1 |
| 20260503235017 | 70 | 270 | 4.0 | 9.0 | 0.00 | 0.00 | 0.00 | 25 | 1003.2 |
| 20260503234017 | 70 | 270 | 3.0 | 8.0 | 0.00 | 0.00 | 0.00 | 24 | 1003.2 |
| 20260503233017 | 70 | 270 | 4.0 | 11.0 | 0.00 | 0.00 | 0.00 | 24 | 1003.2 |
| 20260503232017 | 70 | 270 | 4.0 | 12.0 | 0.00 | 0.00 | 0.00 | 24 | 1003.4 |
| 20260503231037 | 70 | 270 | 4.0 | 11.0 | 0.00 | 0.00 | 0.00 | 24 | 1003.5 |
| 20260503230017 | 70 | 293 | 3.0 | 10.0 | 0.00 | 0.00 | 0.00 | 24 | 1003.7 |
| 20260503225017 | 70 | 270 | 5.0 | 12.0 | 0.00 | 0.00 | 0.00 | 23 | 1003.8 |
| 20260503223037 | 70 | 293 | 5.0 | 9.0 | 0.00 | 0.00 | 0.00 | 23 | 1003.9 |
| 20260503222017 | 70 | 270 | 4.0 | 10.0 | 0.00 | 0.00 | 0.00 | 23 | 1003.9 |
| 20260503221017 | 70 | 315 | 5.0 | 10.0 | 0.00 | 0.00 | 0.00 | 24 | 1003.9 |
| 20260503220017 | 70 | 0 | 5.0 | 12.0 | 0.00 | 0.00 | 0.00 | 23 | 1004.0 |
| 20260503215037 | 70 | 293 | 4.0 | 9.0 | 0.00 | 0.00 | 0.00 | 24 | 1004.1 |
| 20260503214017 | 70 | 270 | 6.0 | 14.0 | 0.00 | 0.00 | 0.00 | 23 | 1004.3 |
| 20260503213017 | 70 | 270 | 3.0 | 12.0 | 0.00 | 0.00 | 0.00 | 26 | 1004.2 |
| 20260503212017 | 70 | 315 | 5.0 | 10.0 | 0.00 | 0.00 | 0.00 | 25 | 1004.3 |
| 20260503211037 | 70 | 270 | 5.0 | 13.0 | 0.00 | 0.00 | 0.00 | 26 | 1004.4 |
| 20260503210017 | 70 | 293 | 5.0 | 16.0 | 0.00 | 0.00 | 0.00 | 26 | 1004.6 |
| 20260503205017 | 70 | 270 | 4.0 | 13.0 | 0.00 | 0.00 | 0.00 | 28 | 1004.6 |
| 20260503204017 | 70 | 270 | 4.0 | 10.0 | 0.00 | 0.00 | 0.00 | 27 | 1004.6 |
| 20260503203017 | 70 | 270 | 4.0 | 10.0 | 0.00 | 0.00 | 0.00 | 29 | 1004.8 |
| 20260503202017 | 70 | 315 | 4.0 | 10.0 | 0.00 | 0.00 | 0.00 | 28 | 1004.8 |
| 20260503201017 | 70 | 338 | 2.0 | 8.0 | 0.00 | 0.00 | 0.00 | 28 | 1004.9 |
| 20260503200017 | 69 | 315 | 7.0 | 13.0 | 0.00 | 0.00 | 0.00 | 26 | 1005.1 |
| 20260503195017 | 69 | 270 | 4.0 | 13.0 | 0.00 | 0.00 | 0.00 | 26 | 1005.1 |
| 20260503194017 | 69 | 338 | 4.0 | 11.0 | 0.00 | 0.00 | 0.00 | 27 | 1005.2 |
| 20260503193017 | 69 | 270 | 4.0 | 9.0 | 0.00 | 0.00 | 0.00 | 28 | 1005.3 |
| 20260503192017 | 69 | 293 | 3.0 | 9.0 | 0.00 | 0.00 | 0.00 | 28 | 1005.2 |
| 20260503191016 | 69 | 293 | 5.0 | 11.0 | 0.00 | 0.00 | 0.00 | 27 | 1005.4 |
| 20260503190016 | 68 | 270 | 4.0 | 10.0 | 0.00 | 0.00 | 0.00 | 28 | 1005.3 |
| 20260503185016 | 68 | 270 | 7.0 | 12.0 | 0.00 | 0.00 | 0.00 | 29 | 1005.5 |
| 20260503184017 | 68 | 315 | 4.0 | 12.0 | 0.00 | 0.00 | 0.00 | 29 | 1005.4 |
| 20260503183017 | 68 | 338 | 6.0 | 15.0 | 0.00 | 0.00 | 0.00 | 29 | 1005.5 |
| 20260503182018 | 68 | 315 | 5.0 | 10.0 | 0.00 | 0.00 | 0.00 | 30 | 1005.6 |
| 20260503181016 | 68 | 293 | 4.0 | 10.0 | 0.00 | 0.00 | 0.00 | 35 | 1005.5 |
| 20260503180016 | 68 | 270 | 4.0 | 12.0 | 0.00 | 0.00 | 0.00 | 35 | 1005.7 |
| 20260503175016 | 68 | 293 | 5.0 | 14.0 | 0.00 | 0.00 | 0.00 | 35 | 1005.8 |
| 20260503174017 | 67 | 270 | 4.0 | 12.0 | 0.00 | 0.00 | 0.00 | 36 | 1005.7 |
| 20260503173016 | 67 | 315 | 4.0 | 13.0 | 0.00 | 0.00 | 0.00 | 37 | 1005.9 |
| 20260503172016 | 67 | 338 | 6.0 | 11.0 | 0.00 | 0.00 | 0.00 | 37 | 1005.9 |
| 20260503171016 | 67 | 270 | 5.0 | 13.0 | 0.00 | 0.00 | 0.00 | 38 | 1005.8 |
| 20260503131016 | 56 | 315 | 4.0 | 10.0 | 0.00 | 0.00 | 0.00 | 52 | 1004.7 |
| 20260503081017 | 58 | 203 | 1.0 | 4.0 | 0.00 | 0.00 | 0.00 | 46 | 1004.6 |